| time (UTC) | temp C | wind direction | speed KPH | gust KPH | rain 1hr cm | rain 24hr cm | rain mn cm | humidity % | barometer mb |
| 20260508032828 | 17 | 146 | 1.6 | 6.4 | 0.00 | 0.00 | 0.00 | 81 | 1015.1 |
| 20260508031324 | 17 | 239 | 1.6 | 4.8 | 0.00 | 0.00 | 0.00 | 80 | 1014.9 |
| 20260508030520 | 18 | 150 | 3.2 | 8.0 | 0.00 | 0.00 | 0.00 | 79 | 1014.5 |
| 20260508024326 | 18 | 152 | 3.2 | 12.9 | 0.00 | 0.00 | 0.00 | 77 | 1014.3 |
| 20260508022821 | 19 | 171 | 1.6 | 11.3 | 0.00 | 0.00 | 0.00 | 75 | 1014.1 |
| 20260508021321 | 20 | 163 | 1.6 | 8.0 | 0.00 | 0.00 | 0.00 | 73 | 1014.0 |
| 20260508020513 | 20 | 134 | 1.6 | 9.7 | 0.00 | 0.00 | 0.00 | 72 | 1013.8 |
| 20260508014319 | 21 | 144 | 3.2 | 9.7 | 0.00 | 0.00 | 0.00 | 70 | 1014.0 |
| 20260508014203 | 21 | 134 | 3.2 | 11.3 | 0.00 | 0.00 | 0.00 | 68 | 1013.9 |
| 20260508011319 | 23 | 171 | 3.2 | 11.3 | 0.00 | 0.00 | 0.00 | 64 | 1013.7 |
| 20260508005816 | 24 | 153 | 3.2 | 8.0 | 0.00 | 0.00 | 0.00 | 62 | 1013.7 |
| 20260508004317 | 24 | 143 | 1.6 | 8.0 | 0.00 | 0.00 | 0.00 | 62 | 1013.6 |
| 20260508002818 | 24 | 150 | 4.8 | 11.3 | 0.00 | 0.00 | 0.00 | 62 | 1013.6 |
| 20260508001314 | 25 | 149 | 1.6 | 9.7 | 0.00 | 0.00 | 0.00 | 60 | 1013.6 |
| 20260508000510 | 25 | 242 | 3.2 | 9.7 | 0.00 | 0.00 | 0.00 | 61 | 1013.7 |
| 20260507234314 | 25 | 147 | 3.2 | 8.0 | 0.00 | 0.00 | 0.00 | 59 | 1013.7 |
| 20260507232815 | 25 | 150 | 3.2 | 14.5 | 0.00 | 0.00 | 0.00 | 60 | 1013.7 |
| 20260507231314 | 25 | 152 | 4.8 | 14.5 | 0.00 | 0.00 | 0.00 | 59 | 1013.6 |
| 20260507225814 | 26 | 210 | 4.8 | 12.9 | 0.00 | 0.00 | 0.00 | 59 | 1013.8 |
| 20260507224315 | 26 | 161 | 3.2 | 16.1 | 0.00 | 0.00 | 0.00 | 58 | 1013.8 |
| 20260507222814 | 26 | 202 | 4.8 | 11.3 | 0.00 | 0.00 | 0.00 | 58 | 1013.9 |
| 20260507221314 | 26 | 264 | 3.2 | 11.3 | 0.00 | 0.00 | 0.00 | 58 | 1014.1 |
| 20260507215812 | 26 | 141 | 3.2 | 11.3 | 0.00 | 0.00 | 0.00 | 58 | 1014.1 |
| 20260507214310 | 26 | 165 | 4.8 | 11.3 | 0.00 | 0.00 | 0.00 | 59 | 1014.5 |
| 20260507212809 | 26 | 141 | 4.8 | 17.7 | 0.00 | 0.00 | 0.00 | 59 | 1014.5 |
| 20260507211306 | 26 | 176 | 6.4 | 14.5 | 0.00 | 0.00 | 0.00 | 59 | 1014.5 |
| 20260507205807 | 27 | 145 | 4.8 | 11.3 | 0.00 | 0.00 | 0.00 | 57 | 1014.6 |
| 20260507204304 | 27 | 220 | 4.8 | 16.1 | 0.00 | 0.00 | 0.00 | 57 | 1014.8 |
| 20260507203501 | 27 | 196 | 3.2 | 14.5 | 0.00 | 0.00 | 0.00 | 56 | 1014.6 |
| 20260507201304 | 27 | 194 | 4.8 | 16.1 | 0.00 | 0.00 | 0.00 | 56 | 1014.6 |
| 20260507200504 | 27 | 285 | 3.2 | 8.0 | 0.00 | 0.00 | 0.00 | 56 | 1014.9 |
| 20260507194304 | 27 | 161 | 3.2 | 8.0 | 0.00 | 0.00 | 0.00 | 56 | 1015.0 |
| 20260507192803 | 26 | 257 | 3.2 | 12.9 | 0.00 | 0.00 | 0.00 | 57 | 1015.1 |
| 20260507191302 | 26 | 273 | 3.2 | 14.5 | 0.00 | 0.00 | 0.00 | 57 | 1015.2 |
| 20260507185801 | 26 | 142 | 4.8 | 12.9 | 0.00 | 0.00 | 0.00 | 58 | 1015.4 |
| 20260507184302 | 26 | 151 | 3.2 | 11.3 | 0.00 | 0.00 | 0.00 | 58 | 1015.7 |
| 20260507182802 | 25 | 248 | 3.2 | 11.3 | 0.00 | 0.00 | 0.00 | 60 | 1015.8 |
| 20260507181301 | 24 | 144 | 3.2 | 8.0 | 0.00 | 0.00 | 0.00 | 59 | 1015.8 |
| 20260507175802 | 23 | 297 | 1.6 | 4.8 | 0.00 | 0.00 | 0.00 | 62 | 1016.0 |
| 20260507174959 | 22 | 0 | 1.6 | 8.0 | 0.00 | 0.00 | 0.00 | 62 | 1016.1 |
| 20260507174143 | 22 | 169 | 1.6 | 6.4 | 0.00 | 0.00 | 0.00 | 66 | 1016.2 |
| 20260507171303 | 21 | 133 | 1.6 | 6.4 | 0.00 | 0.00 | 0.00 | 68 | 1016.3 |
| 20260507165802 | 20 | 172 | 3.2 | 8.0 | 0.00 | 0.00 | 0.00 | 69 | 1016.4 |
| 20260507164302 | 18 | 262 | 1.6 | 8.0 | 0.00 | 0.00 | 0.00 | 73 | 1016.4 |
| 20260507162801 | 18 | 151 | 3.2 | 8.0 | 0.00 | 0.00 | 0.00 | 75 | 1016.4 |
| 20260507161301 | 17 | 159 | 1.6 | 4.8 | 0.00 | 0.00 | 0.00 | 79 | 1016.4 |
| 20260507155801 | 17 | 253 | 1.6 | 4.8 | 0.00 | 0.00 | 0.00 | 81 | 1016.4 |
| 20260507154301 | 16 | 150 | 1.6 | 8.0 | 0.00 | 0.00 | 0.00 | 84 | 1016.5 |
| 20260507152803 | 16 | 318 | 1.6 | 4.8 | 0.00 | 0.00 | 0.00 | 86 | 1016.6 |
| 20260507152004 | 15 | 317 | 1.6 | 4.8 | 0.00 | 0.00 | 0.00 | 88 | 1016.6 |
| 20260507145802 | 14 | 318 | 1.6 | 4.8 | 0.00 | 0.00 | 0.00 | 89 | 1016.6 |
| 20260507144302 | 14 | 317 | 0.0 | 0.0 | 0.00 | 0.00 | 0.00 | 89 | 1016.4 |
| 20260507144149 | 13 | 317 | 0.0 | 0.0 | 0.00 | 0.00 | 0.00 | 88 | 1016.3 |
| 20260507141955 | 13 | 317 | 0.0 | 0.0 | 0.00 | 0.00 | 0.00 | 88 | 1016.2 |
| 20260507135801 | 12 | 317 | 0.0 | 0.0 | 0.00 | 0.00 | 0.00 | 87 | 1016.1 |
| 20260507134301 | 12 | 317 | 0.0 | 0.0 | 0.00 | 0.00 | 0.00 | 87 | 1016.0 |
| 20260507132800 | 12 | 317 | 0.0 | 0.0 | 0.00 | 0.00 | 0.00 | 87 | 1015.8 |
| 20260507131302 | 12 | 317 | 0.0 | 0.0 | 0.00 | 0.00 | 0.00 | 86 | 1015.7 |
| 20260507130448 | 12 | 317 | 0.0 | 0.0 | 0.00 | 0.00 | 0.00 | 86 | 1015.7 |
| 20260507124302 | 12 | 317 | 0.0 | 0.0 | 0.00 | 0.00 | 0.00 | 86 | 1015.6 |
| 20260507122800 | 13 | 317 | 0.0 | 0.0 | 0.00 | 0.00 | 0.00 | 86 | 1015.5 |
| 20260507121301 | 13 | 317 | 0.0 | 0.0 | 0.00 | 0.00 | 0.00 | 86 | 1015.5 |
| 20260507115801 | 13 | 317 | 0.0 | 0.0 | 0.00 | 0.00 | 0.00 | 86 | 1015.6 |
| 20260507114302 | 13 | 317 | 0.0 | 0.0 | 0.00 | 0.00 | 0.00 | 86 | 1015.8 |
| 20260507112802 | 13 | 317 | 0.0 | 0.0 | 0.00 | 0.00 | 0.00 | 86 | 1015.8 |
| 20260507111302 | 13 | 317 | 0.0 | 0.0 | 0.00 | 0.00 | 0.00 | 85 | 1016.0 |
| 20260507105800 | 13 | 317 | 0.0 | 0.0 | 0.00 | 0.00 | 0.00 | 85 | 1016.0 |
| 20260507104301 | 13 | 317 | 0.0 | 0.0 | 0.00 | 0.00 | 0.00 | 85 | 1016.0 |
| 20260507102801 | 14 | 317 | 0.0 | 0.0 | 0.00 | 0.00 | 0.00 | 85 | 1016.1 |
| 20260507101301 | 14 | 317 | 0.0 | 0.0 | 0.00 | 0.00 | 0.00 | 85 | 1016.1 |
| 20260507100503 | 14 | 317 | 0.0 | 0.0 | 0.00 | 0.00 | 0.00 | 84 | 1016.0 |
| 20260507094302 | 14 | 317 | 0.0 | 0.0 | 0.00 | 0.00 | 0.00 | 84 | 1016.2 |
| 20260507092802 | 15 | 317 | 0.0 | 0.0 | 0.00 | 0.00 | 0.00 | 84 | 1016.3 |
| 20260507091301 | 15 | 317 | 0.0 | 0.0 | 0.00 | 0.00 | 0.00 | 83 | 1016.5 |
| 20260507085801 | 15 | 317 | 0.0 | 0.0 | 0.00 | 0.00 | 0.00 | 83 | 1016.7 |
| 20260507084300 | 15 | 317 | 0.0 | 0.0 | 0.00 | 0.00 | 0.00 | 82 | 1016.8 |
| 20260507082803 | 15 | 317 | 0.0 | 0.0 | 0.00 | 0.00 | 0.00 | 82 | 1016.9 |
| 20260507081959 | 15 | 317 | 0.0 | 0.0 | 0.00 | 0.00 | 0.00 | 82 | 1017.0 |
| 20260507075801 | 15 | 317 | 0.0 | 0.0 | 0.00 | 0.00 | 0.00 | 82 | 1017.1 |
| 20260507074300 | 15 | 317 | 0.0 | 0.0 | 0.00 | 0.00 | 0.00 | 81 | 1017.0 |
| 20260507072800 | 15 | 317 | 0.0 | 0.0 | 0.00 | 0.00 | 0.00 | 81 | 1016.9 |
| 20260507071302 | 16 | 317 | 0.0 | 0.0 | 0.00 | 0.00 | 0.00 | 81 | 1017.0 |
| 20260507065803 | 16 | 317 | 0.0 | 0.0 | 0.00 | 0.00 | 0.00 | 80 | 1017.1 |
| 20260507065003 | 16 | 317 | 0.0 | 0.0 | 0.00 | 0.00 | 0.00 | 79 | 1017.2 |
| 20260507062803 | 16 | 317 | 0.0 | 0.0 | 0.00 | 0.00 | 0.00 | 79 | 1017.2 |
| 20260507061302 | 16 | 317 | 0.0 | 0.0 | 0.00 | 0.00 | 0.00 | 78 | 1017.2 |
| 20260507055759 | 16 | 317 | 0.0 | 0.0 | 0.00 | 0.00 | 0.00 | 77 | 1017.3 |
| 20260507054257 | 16 | 317 | 0.0 | 0.0 | 0.00 | 0.00 | 0.00 | 77 | 1017.2 |
| 20260507052755 | 16 | 317 | 0.0 | 0.0 | 0.00 | 0.00 | 0.00 | 76 | 1017.2 |
| 20260507052633 | 16 | 317 | 0.0 | 0.0 | 0.00 | 0.00 | 0.00 | 75 | 1017.2 |
| 20260507045751 | 16 | 317 | 0.0 | 0.0 | 0.00 | 0.00 | 0.00 | 75 | 1017.2 |
| 20260507044249 | 16 | 317 | 0.0 | 0.0 | 0.00 | 0.00 | 0.00 | 74 | 1017.1 |
| 20260507043446 | 17 | 317 | 0.0 | 1.6 | 0.00 | 0.00 | 0.00 | 73 | 1017.1 |
| 20260507041247 | 17 | 317 | 0.0 | 4.8 | 0.00 | 0.00 | 0.00 | 73 | 1017.0 |
| 20260507040435 | 17 | 355 | 1.6 | 4.8 | 0.00 | 0.00 | 0.00 | 72 | 1016.8 |
| 20260507034247 | 17 | 338 | 1.6 | 4.8 | 0.00 | 0.00 | 0.00 | 71 | 1016.7 |